Regional Weather Roundup
Issued by NWS

Home | Current Version | Previous Version | Text Only | Print | Product List | Glossary Off
Versions: 1 2 3 4 5 6 7 8 9 10 11 12 13 14 15 16 17 18 19 20 21 22 23 24 25 26 27 28 29 30 31 32 33 34 35 36 37 38 39 40 41 42 43 44 45 46 47 48 49 50

000
ASUS43 KLOT 220210
RWRIL

ILLINOIS REGIONAL WEATHER ROUNDUP
NATIONAL WEATHER SERVICE CHICAGO/ROMEOVILLE IL
800 PM CST SUN DEC 21 2014

NOTE: "FAIR" INDICATES FEW OR NO CLOUDS BELOW 12,000 FEET WITH NO
SIGNIFICANT WEATHER AND/OR OBSTRUCTIONS TO VISIBILITY.

* THESE STATIONS ARE NOT UNDER NWS QUALITY CONTROL. THEY ALSO MAY NOT
  REPORT WEATHER SUCH AS PRECIPITATION OR FOG.

ILZ001-002-007-009-015-016-024-220300-
NORTHWEST ILLINOIS

CITY           SKY/WX    TMP DP  RH WIND       PRES   REMARKS
MOLINE         CLOUDY    36  31  82 SE14G23   29.96F WCI  27
STERLING*      CLOUDY    36  28  75 SE7G16    29.99F WCI  30
SAVANNA*       CLOUDY    36  31  83 SE14      29.98R WCI  27
$$

ILZ003-004-008-010-011-017-018-220300-
NORTH CENTRAL ILLINOIS

CITY           SKY/WX    TMP DP  RH WIND       PRES   REMARKS
ROCKFORD       CLOUDY    35  29  78 S14       30.02F WCI  26
FREEPORT*      CLOUDY    34  31  88 S18       29.99F WCI  23
ROCHELLE*      CLOUDY    33  31  90 SE14      30.01F WCI  24
DE KALB*       CLOUDY    33  30  89 SE14      30.02F WCI  23
PERU*          CLOUDY    37  32  82 SE15G22   30.02F WCI  27
$$

ILZ005-006-012>014-019>023-220300-
NORTHEAST ILLINOIS

CITY           SKY/WX    TMP DP  RH WIND       PRES   REMARKS
CHICAGO-OHARE  CLOUDY    36  29  75 SE10      30.05F WCI  28
CHICAGO-MIDWAY CLOUDY    38  30  73 SE8       30.07F WCI  32
AURORA         CLOUDY    36  29  75 SE9       30.04F WCI  29
LANSING*       CLOUDY    34  29  82 SE12      30.08F WCI  25
JOLIET*        PTCLDY    34  30  86 SE7       30.06F WCI  27
WAUKEGAN       CLOUDY    35  29  78 SE13      30.05F WCI  26
DUPAGE AIRPORT CLOUDY    36  30  79 S7        30.04F WCI  30
KANKAKEE*      PTCLDY    32  29  91 E6        30.08F WCI  26
WHEELING       CLOUDY    36  29  75 S9        30.07F WCI  29
MORRIS*        MOCLDY    34  32  90 SE7       30.04F WCI  28
ROMEOVILLE*    MOCLDY    33  30  88 SE9       30.06F WCI  26
NORTHERLY ISL    N/A     36  30  79 SE13        N/A  WCI  27
$$

LMZ740>746-220300-
SOUTHERN LAKE MICHIGAN

STATION/POSITION SKY/WX   TEMP    WIND        PRES    VSBY  WAVE
                          AIR SEA DIR/SP/G                  HT/PER
                          (F)     (DEG/KT/KT) (MB)    (MI)  (FT/S)
WAUKEGAN HARBOR            36     160/ 16/ 19   N/A
HARRISON CRIB              36     150/ 16/ 20   N/A
BURNHAM HARBOR             36     160/ 12/ 13   N/A
CALUMET HARBOR             36     140/  9/ 13 1017.3F
$$

ILZ025>027-034>036-040-047-049-050-058-095>099-220300-
WEST-CENTRAL ILLINOIS

CITY           SKY/WX    TMP DP  RH WIND       PRES   REMARKS
QUINCY         CLOUDY    40  33  76 SE13      29.93F
GALESBURG*     CLOUDY    36  32  85 SE9G16    29.97F WCI  29
MACOMB*        CLOUDY    37  33  85 SE13      29.99S WCI  29
JACKSONVILLE*  CLOUDY    41  32  70 SE10      29.98F
PITTSFIELD*    LGT RAIN  40  35  81 SE9       29.97F
$$

ILZ028>032-037-038-041>044-048-051>054-059>061-220300-
CENTRAL ILLINOIS

CITY           SKY/WX    TMP DP  RH WIND       PRES   REMARKS
PONTIAC        MOCLDY    33  31  94 SE8       30.06S WCI  26
BLOOMINGTON    MOCLDY    33  30  89 SE10      30.03F WCI  25
DECATUR        PTCLDY    34  29  82 SE14      30.04F WCI  25
PEORIA         CLOUDY    38  29  70 SE9       30.01F WCI  31
LACON*         CLOUDY    35  30  82 SE14      30.01F WCI  25
LINCOLN*       CLOUDY    37  32  83 SE9       30.03F WCI  30
SPRINGFIELD    CLOUDY    39  30  70 SE14      30.02R WCI  31
TAYLORVILLE    CLOUDY    36  30  80 SE8       30.03S WCI  29
$$

ILZ033-039-045-046-055>057-062-063-220300-
EAST-CENTRAL ILLINOIS

CITY           SKY/WX    TMP DP  RH WIND       PRES   REMARKS
CHAMPAIGN      PTCLDY    31  28  89 SE10      30.06F WCI  22
DANVILLE*      MOCLDY    32  29  89 SE7       30.06S WCI  25
RANTOUL*       CLOUDY    33  31  91 SE8       30.06F WCI  26
MATTOON        PTCLDY    34  28  79 SE9       30.06S WCI  27
PARIS*         MOCLDY    33  31  91 SE5       30.09F WCI  28
$$

ILZ079-100>102-220300-
SOUTHWEST ILLINOIS

CITY           SKY/WX    TMP DP  RH WIND       PRES   REMARKS
ALTON          CLOUDY    41  30  65 SE9       30.00F
CAHOKIA*       CLOUDY    43  33  68 SE13      29.99F
SPARTA*        CLOUDY    40  32  74 SE5       30.04S
$$

ILZ064>066-069>071-074>076-080>082-084>086-088>090-092>094-220300-
SOUTH-CENTRAL ILLINOIS

CITY           SKY/WX    TMP DP  RH WIND       PRES   REMARKS
CARBONDALE     CLEAR     34  28  79 E6        30.03F WCI  29
CAIRO*         MOCLDY    36  32  85 E5        30.02F WCI  32
EFFINGHAM*     MOCLDY    35  28  75 E8        30.07F WCI  28
MARION         CLEAR     37  30  75 E5        30.04F WCI  34
MT. VERNON     MOCLDY    37  27  65 E6        30.05F WCI  33
CENTRALIA*     MOCLDY    37  29  73 SE6       30.04S WCI  33
SALEM*         MOCLDY    38  31  73 SE6       30.05S WCI  34
METROPOLIS*    CLEAR     33  30  89 CALM      30.03F
$$

ILZ067-068-072-073-078-083-087-091-220300-
SOUTHEAST ILLINOIS

CITY           SKY/WX    TMP DP  RH WIND       PRES   REMARKS
LAWRENCEVILLE  PTCLDY    31  28  89 E8        30.09F WCI  23
FLORA*         PTCLDY    34  30  85 E6        30.07F WCI  29
FAIRFIELD*     PTCLDY    35  30  83 E5        30.05F WCI  31
HARRISBURG*    PTCLDY    36  30  81 E5        30.06F WCI  32
ROBINSON*      PTCLDY    33  30  86 SE10      30.10F WCI  25
CARMI*         CLEAR     32  30  93 NE6       30.06F WCI  26
$$

ABBREVIATIONS USED IN REMARKS
   TC - TEMPERATURE IN CELSIUS
  WCI - WIND CHILL INDEX
   HX - HEAT INDEX
  VSB - VISIBILITY
$$




USA.gov is the U.S. government's official web portal to all federal, state and local government web resources and services.